星链-35113(STARLINK-35113)

导读

STARLINK-35113是美国太空探索技术公司(SpaceX)于2025年9月21日发射的星链(Starlink)系列低轨通信卫星,属于星链星座扩容卫星,服务全球宽带互联网与5G移动通信。它采用平板设计,搭载Ku/Ka波段通信载荷,以氪工质霍尔推进器实现轨道机动与离轨,具备自主避撞能力,服役后将增强星链覆盖容量,支撑直连手机的5G服务部署。

基本信息
目录编号:
65697
目录名称:
STARLINK-35113
国际标识:
2025-212X
轨道中心:
EARTH
卫星名称:
星链-35113
卫星全名:
星链-35113(STARLINK-35113)
卫星状态:
在轨 (已飞行348 天)
发射日期:
2025-09-21 UTC
国别 :
美国 (US)
星等 :
--
轨道信息
数据来源 国际轨道数据
星历时间: 2026-09-04T00:04:19+0800
19小时前
查看轨道信息
半长轴: 6840.864km
偏心率: 0.000144
轨道倾角: 53.157°
近地点辐角 83.091°
升交点赤经 234.676°
平近点角 277.025°
近地点: 461.741km
远地点: 463.713km
周期: 93.848分钟
每日圈数: 15.343922
详细信息
固有亮度:
5
最大亮度:
2.5
卫星平台:
Starlink V1.0
覆盖范围:
全球
运营商:
太空探索技术公司
运营商所在国:
美国
制造商(研发单位):
太空探索技术公司
制造商所在国:
美国
使用方式:
暂无
卫星简介
Starlink 计划是 SpaceX 推出的全球卫星互联网项目,通过发射低轨道卫星,为全球尤其是偏远地区提供高速、低延迟的互联网服务。自 2019 年起,Starlink 已部署数千颗卫星,旨在缩小全球数字鸿沟,推动互联网普及。该项目还为军事、航空等行业提供通信支持,带来广泛经济效益。
2D轨道图
3D轨道图
轨道高度分析图
轨道倾角分析图
轨道综合分析图
查看轨道综合分析图